EW9504 Weather Reports


Display with metric or nautical units.
time (UTC)temp
F
wind
direction
speed
MPH
gust
MPH
rain 1hr
in
rain 24hr
in
rain mn
in
humidity
%
barometer
mb
20260504171513 81 98 1.0 6.0 0.00 0.00 0.00 64 1013.7
20260504081518 57 212 0.0 0.0 0.00 0.00 0.00 90 1015.0
20260504050120 60 212 0.0 0.0 0.00 0.00 0.00 80 1017.3
20260504044550 61 212 0.0 0.0 0.00 0.00 0.00 78 1017.3
20260504043058 61 212 0.0 0.0 0.00 0.00 0.00 77 1017.4
20260504041550 63 212 0.0 0.0 0.00 0.00 0.00 75 1017.6
20260504040053 63 253 0.0 1.0 0.00 0.00 0.00 73 1017.4
20260504034552 64 124 0.0 0.0 0.00 0.00 0.00 73 1017.3
20260504033049 65 249 0.0 0.0 0.00 0.00 0.00 71 1017.5
20260504031610 65 153 0.0 0.0 0.00 0.00 0.00 70 1017.3
20260504030048 66 304 0.0 2.0 0.00 0.00 0.00 68 1017.2
20260504024548 66 239 0.0 2.0 0.00 0.00 0.00 67 1017.2
20260504023049 67 231 0.0 4.0 0.00 0.00 0.00 66 1017.1
20260504021552 67 39 0.0 1.0 0.00 0.00 0.00 65 1017.0
20260504020048 68 222 0.0 5.0 0.00 0.00 0.00 63 1017.0
20260504014548 69 137 0.0 5.0 0.00 0.00 0.00 62 1016.8
20260504013054 69 140 1.0 3.0 0.00 0.00 0.00 61 1016.7
20260504011550 70 129 0.0 2.0 0.00 0.00 0.00 59 1016.8
20260504010047 71 129 0.0 2.0 0.00 0.00 0.00 57 1016.7
20260504004547 72 139 0.0 2.0 0.00 0.00 0.00 56 1016.6
20260504003048 73 103 0.0 3.0 0.00 0.00 0.00 54 1016.7
20260504001604 75 89 0.0 5.0 0.00 0.00 0.00 52 1016.7
20260504000045 76 243 1.0 5.0 0.00 0.00 0.00 50 1016.6
20260503234544 78 149 0.0 7.0 0.00 0.00 0.00 47 1016.7
20260503233043 79 153 3.0 8.0 0.00 0.00 0.00 46 1016.6
20260503231548 80 162 1.0 7.0 0.00 0.00 0.00 46 1016.9
20260503230041 81 134 1.0 4.0 0.00 0.00 0.00 42 1016.9
20260503224539 81 128 0.0 3.0 0.00 0.00 0.00 41 1017.0
20260503223042 82 351 2.0 5.0 0.00 0.00 0.00 41 1017.1
20260503221536 81 216 0.0 4.0 0.00 0.00 0.00 36 1017.5
20260503220038 83 213 2.0 5.0 0.00 0.00 0.00 35 1017.5
20260503214542 83 301 0.0 2.0 0.00 0.00 0.00 38 1017.5
20260503213050 82 155 0.0 8.0 0.00 0.00 0.00 39 1018.0
20260503211538 83 34 0.0 6.0 0.00 0.00 0.00 37 1018.0
20260503210030 82 236 2.0 6.0 0.00 0.00 0.00 38 1018.3
20260503204544 83 207 2.0 7.0 0.00 0.00 0.00 38 1018.3
20260503203027 83 144 0.0 7.0 0.00 0.00 0.00 40 1018.6
20260503201526 83 341 2.0 7.0 0.00 0.00 0.00 39 1018.8
20260503200023 84 248 0.0 6.0 0.00 0.00 0.00 41 1019.2
20260503194525 83 105 0.0 4.0 0.00 0.00 0.00 42 1019.4
20260503193020 83 86 2.0 5.0 0.00 0.00 0.00 43 1019.5
20260503191518 82 139 0.0 6.0 0.00 0.00 0.00 40 1019.8
20260503190017 82 289 1.0 7.0 0.00 0.00 0.00 38 1020.0
20260503184516 82 214 2.0 5.0 0.00 0.00 0.00 42 1020.4
20260503183015 81 269 0.0 6.0 0.00 0.00 0.00 40 1020.5
20260503181514 80 119 1.0 7.0 0.00 0.00 0.00 41 1020.7
20260503180024 82 139 2.0 5.0 0.00 0.00 0.00 41 1021.0
20260503174519 80 112 2.0 8.0 0.00 0.00 0.00 41 1021.3
20260503173013 80 227 0.0 8.0 0.00 0.00 0.00 49 1021.5